{"data":{"norad_id":60737,"intl_designator":"2024-152T","name":"STARLINK-32289","alt_names":[],"object_type":"PAYLOAD","status":"ACTIVE","operator":null,"country":"US","launch_date":"2024-08-28","launch_site_code":"AFETR","launch_vehicle":null,"mission":null,"orbit_class":"UNKNOWN","rcs_meters":null,"size_class":null,"mass_kg":null,"dimensions":null,"purposes":["comms"],"wikipedia_slug":null,"has_3d_model":false,"image_url":null,"decayed_at":null,"tle_current":{"epoch":"2026-05-25T02:00:39.829248Z","epoch_age_seconds":64278,"freshness":"FRESH","line1":"1 60737U 24152T   26145.08379432  .00001166  00000+0  51500-4 0  9999","line2":"2 60737  53.1604 273.8298 0001386 115.0021 245.1124 15.30197878 98545","mean_motion":15.30197878,"eccentricity":0.0001386,"inclination_deg":53.1604,"raan_deg":273.8298,"arg_perigee_deg":115.0021,"mean_anomaly_deg":245.1124,"bstar":5.15e-5,"rev_number":9854,"period_min":94.105476206914,"perigee_km":474.27152986117,"apogee_km":476.17128081113,"semimajor_km":6853.3584053362,"source":"CELESTRAK","updated_at":"2026-05-25T13:38:19.310787Z"}}}